Powrót do katalogu

STARLINK-34950

AktywnyŁącznośćSSO
NORAD 65193·PAYLOAD·🇺🇸 United States

Wystrzelony Aug 14, 2025 z Vandenberg Space Force Base

Loading…

Następne Przeloty (najbliższe 24 godziny)

TLE

ŚwieżeSource: CelesTrak SupGP

Epoka: Sep 14, 2026, 22:48 UTC

1 65193C 25175V   26257.95048611  .00058665  00000+0  18219-2 0  2579
2 65193  97.2845 127.0056 0002370  92.3225 204.2115 15.33392790    15

Śledź STARLINK-34950 w czasie rzeczywistym z AllMySat

Download on the App Store